Location: LewisvilleTX
(33.0462°N, 96.9942°W)
Time: 22:22:55
(UTC+00:00)

Envisat - Pass Details

Date: 04 October 2020
Orbit: 764 x 766 km, 98.1° (Epoch: 26 October)

Event Time Altitude Azimuth Distance (km) Brightness Sun altitude
Rises 11:18:49 0° 33° (NNE) 3,232 6.8 -14.6°
Reaches altitude 10° 11:21:57 10° 53° (NE) 2,302 6.4 -14.0°
Maximum altitude 11:25:11 17° 94° (E) 1,856 6.2 -13.3°
Drops below altitude 10° 11:28:26 10° 134° (SE) 2,292 6.1 -12.6°
Sets 11:31:31 0° 154° (SSE) 3,213 6.6 -12.0°
